sat.trackr.live / text

‹ back to catalog

ORBASTRO-PC-1

NORAD 58258 · 2023-174C

PAYLOAD ACTIVE UNKNOWN

§ Identity

Operator
Country
UK
Launch date
2023-11-11
Launch site
AFWTR
Launch vehicle
Mass (kg)
RCS (m²)

External: N2YO · Heavens-Above · Gunter

§ Orbital elements

Epoch: 2026-09-21T23:23:11.990976Z

Period
92.71 min
Inclination
97.3741°
Eccentricity
0.0006495
Mean motion
15.53193063 rev/d
Perigee alt
403.0 km
Apogee alt
411.8 km
Semi-major
6,785.5 km
B*
3.8363e-4
RAAN
353.4034°
Arg perigee
159.2261°
Mean anomaly
200.9258°
Rev number
16,047

§ Raw data

ORBASTRO-PC-11 58258U 23174C   26264.97444434  .00024045  00000+0  38363-3 0  99942 58258  97.3741 353.4034 0006495 159.2261 200.9258 15.53193063160473

JSON: /api/v1/satellites/58258 · /tle

For live sub-satellite position, see the globe view (requires WebGL).

§ Visibility from observer

Set your observer location to see the next 7 days of passes ≥ 10°. The values pass through the URL so the page stays shareable.

No JS? Fill the form by hand. The geolocation button needs JavaScript.

§ Radio — SatNOGS DB

ModeDescriptionDownlinkUplink
FM S-band telemetry 2.260 GHz

1 transmitter · refreshed weekly from db.satnogs.org